DW7177 Weather Reports


Display with metric or nautical units.
time (UTC)temp
F
wind
direction
speed
MPH
gust
MPH
rain 1hr
in
rain 24hr
in
rain mn
in
humidity
%
barometer
mb
20260502170403 62 243 1.0 5.0 0.00 0.05 0.05 66 1012.3
20260502170217 62 243 1.0 5.0 0.00 0.05 0.05 67 1012.3
20260502164003 62 243 0.0 2.0 0.00 0.05 0.05 67 1012.4
20260502163603 62 243 0.0 2.0 0.00 0.05 0.05 67 1012.4
20260502163203 62 243 0.0 2.0 0.00 0.05 0.05 66 1012.4
20260502162803 62 243 0.0 3.0 0.00 0.05 0.05 65 1012.5
20260502162403 62 243 0.0 3.0 0.00 0.05 0.05 66 1012.5
20260502162003 63 243 0.0 3.0 0.00 0.05 0.05 67 1012.5
20260502161603 63 243 0.0 2.0 0.00 0.05 0.05 65 1012.5
20260502161203 63 243 0.0 6.0 0.00 0.05 0.05 64 1012.5
20260502160803 63 243 0.0 6.0 0.00 0.05 0.05 64 1012.6
20260502160403 63 243 0.0 5.0 0.00 0.05 0.05 64 1012.6
20260502152003 64 244 1.0 4.0 0.00 0.05 0.05 61 1012.8
20260502151817 64 244 1.0 6.0 0.00 0.05 0.05 62 1012.8
20260502151203 63 244 2.0 6.0 0.00 0.05 0.05 63 1012.9
20260502151017 63 244 2.0 6.0 0.00 0.05 0.05 62 1012.8
20260502150403 63 244 1.0 6.0 0.00 0.05 0.05 63 1012.8
20260502130403 64 240 3.0 8.0 0.00 0.05 0.05 55 1013.7
20260502123603 65 240 3.0 9.0 0.00 0.05 0.05 55 1013.9
20260502123203 65 240 3.0 8.0 0.00 0.05 0.05 56 1013.9
20260502122803 65 240 2.0 8.0 0.00 0.05 0.05 58 1013.8
20260502122403 64 240 2.0 8.0 0.00 0.05 0.05 59 1013.9
20260502122003 64 240 2.0 7.0 0.00 0.05 0.05 60 1013.8
20260502121603 64 240 3.0 7.0 0.00 0.05 0.05 60 1013.9
20260502121203 64 241 3.0 7.0 0.00 0.05 0.05 59 1013.9
20260502121018 63 242 3.0 8.0 0.00 0.05 0.05 60 1014.0
20260502120403 63 240 3.0 9.0 0.00 0.05 0.05 62 1014.0
20260502120217 63 239 3.0 10.0 0.00 0.05 0.05 62 1013.9
20260502115817 63 238 3.0 10.0 0.00 0.05 0.05 63 1013.9
20260502115203 63 238 4.0 10.0 0.00 0.05 0.05 62 1013.9
20260502114803 63 239 4.0 11.0 0.00 0.05 0.05 62 1014.1
20260502114403 63 240 3.0 11.0 0.00 0.05 0.05 64 1014.2
20260502114003 63 236 3.0 14.0 0.00 0.05 0.05 63 1014.2
20260502113603 63 229 3.0 14.0 0.00 0.05 0.05 65 1014.2
20260502113203 63 221 4.0 11.0 0.00 0.05 0.05 66 1014.1
20260502112803 62 227 5.0 11.0 0.00 0.05 0.05 66 1014.1
20260502112403 62 230 5.0 11.0 0.00 0.05 0.05 67 1014.3
20260502112003 62 230 4.0 11.0 0.00 0.05 0.05 66 1014.3
20260502111603 62 229 4.0 8.0 0.00 0.05 0.05 65 1014.2
20260502111417 62 229 4.0 8.0 0.00 0.05 0.05 66 1014.2
20260502110803 62 230 3.0 10.0 0.00 0.05 0.05 66 1014.2
20260502110403 62 231 4.0 10.0 0.00 0.05 0.05 68 1014.2
20260502110003 62 231 4.0 10.0 0.00 0.05 0.05 69 1014.2
20260502105603 61 230 3.0 10.0 0.00 0.05 0.05 69 1014.2
20260502105203 61 230 3.0 9.0 0.00 0.05 0.05 68 1014.3
20260502104803 61 229 4.0 13.0 0.00 0.05 0.05 68 1014.3
20260502104403 60 227 4.0 13.0 0.00 0.05 0.05 70 1014.3
20260502104003 61 222 3.0 13.0 0.00 0.05 0.05 68 1014.3
20260502103817 61 220 3.0 9.0 0.00 0.05 0.05 69 1014.3
20260502103203 61 220 3.0 9.0 0.00 0.05 0.05 69 1014.3
20260502102803 60 220 3.0 9.0 0.00 0.05 0.05 70 1014.4
20260502102618 60 220 4.0 9.0 0.00 0.05 0.05 70 1014.4
20260502102003 60 219 3.0 8.0 0.00 0.05 0.05 71 1014.4
20260502101603 60 219 2.0 6.0 0.00 0.05 0.05 72 1014.5
20260502101203 60 219 3.0 7.0 0.00 0.05 0.05 73 1014.5
20260502100803 59 219 3.0 7.0 0.00 0.05 0.05 72 1014.5
20260502100403 59 218 3.0 10.0 0.00 0.05 0.05 72 1014.4
20260502091203 58 215 4.0 11.0 0.00 0.05 0.05 78 1014.8
20260502090803 58 214 4.0 11.0 0.00 0.05 0.05 77 1014.8
20260502090617 58 213 4.0 11.0 0.00 0.05 0.05 76 1014.8
20260502090218 58 212 4.0 8.0 0.00 0.05 0.05 77 1014.8
20260502071203 52 205 1.0 4.0 0.00 0.05 0.05 89 1014.5
20260502071018 52 205 1.0 3.0 0.00 0.05 0.05 89 1014.6
20260502070403 52 205 1.0 4.0 0.00 0.05 0.05 90 1014.5
20260502070003 52 205 1.0 4.0 0.00 0.05 0.05 90 1014.6
20260502065603 51 205 2.0 5.0 0.00 0.05 0.05 90 1014.7
20260502065203 51 205 2.0 6.0 0.00 0.05 0.05 90 1014.8
20260502064803 50 205 3.0 6.0 0.00 0.05 0.05 90 1014.8
20260502064403 50 205 2.0 6.0 0.00 0.05 0.05 91 1014.9
20260502064003 50 205 1.0 6.0 0.00 0.05 0.05 92 1014.8
20260502063817 50 205 1.0 6.0 0.00 0.05 0.05 92 1014.9
20260502063203 49 205 1.0 4.0 0.00 0.05 0.05 93 1014.9
20260502063018 49 205 1.0 4.0 0.00 0.05 0.05 92 1014.8
20260502062403 49 205 0.0 2.0 0.00 0.05 0.05 93 1014.8
20260502062217 49 205 0.0 2.0 0.00 0.05 0.05 93 1014.8
20260502061603 48 205 0.0 2.0 0.00 0.05 0.05 93 1014.8
20260502061203 48 205 0.0 2.0 0.00 0.05 0.05 93 1014.8
20260502060803 48 205 0.0 1.0 0.00 0.05 0.05 93 1014.8
20260502060403 48 205 0.0 1.0 0.00 0.05 0.05 93 1014.8
20260502060003 48 205 0.0 1.0 0.00 0.05 0.05 93 1014.8
20260502055603 48 205 0.0 1.0 0.00 0.05 0.05 94 1014.8
20260502055203 48 205 0.0 1.0 0.00 0.05 0.05 94 1014.8
20260502054803 48 205 0.0 1.0 0.00 0.05 0.05 94 1014.9
20260502054403 48 205 0.0 1.0 0.00 0.05 0.05 94 1014.9
20260502054217 48 205 0.0 1.0 0.00 0.05 0.05 94 1014.9
20260502053603 47 205 0.0 1.0 0.00 0.05 0.05 94 1015.0
20260502053203 47 0 0.0 0.0 0.00 0.05 0.05 94 1015.0
20260502052803 47 0 0.0 0.0 0.00 0.05 0.05 94 1015.0
20260502052403 47 0 0.0 0.0 0.00 0.05 0.05 94 1015.0
20260502052003 47 0 0.0 0.0 0.00 0.05 0.05 94 1015.0
20260502051603 47 0 0.0 0.0 0.00 0.05 0.05 94 1015.1
20260502051203 47 0 0.0 0.0 0.00 0.05 0.05 94 1015.0
20260502050804 47 0 0.0 0.0 0.00 0.05 0.05 94 1015.0
20260502050618 47 0 0.0 0.0 0.00 0.05 0.05 94 1015.0
20260502050218 47 0 0.0 0.0 0.00 0.05 0.05 94 1015.0
20260502045603 47 0 0.0 0.0 0.00 0.05 0.05 94 1015.0
20260502045203 47 0 0.0 0.0 0.00 0.05 0.05 94 1014.9
20260502044803 47 0 0.0 0.0 0.00 0.05 0.05 94 1014.9
20260502044403 47 0 0.0 0.0 0.00 0.05 0.05 94 1014.9
20260502044003 47 0 0.0 0.0 0.00 0.05 0.05 94 1014.9
20260502043603 47 0 0.0 0.0 0.00 0.05 0.05 94 1014.9
20260502043203 48 0 0.0 0.0 0.00 0.05 0.05 94 1014.9
20260502042803 48 0 0.0 0.0 0.00 0.05 0.05 94 1014.9
20260502042403 48 0 0.0 0.0 0.00 0.05 0.05 94 1015.0
20260502042003 48 0 0.0 0.0 0.00 0.05 0.05 94 1014.9
20260502041603 48 0 0.0 0.0 0.00 0.05 0.05 94 1014.9
20260502041203 48 0 0.0 0.0 0.00 0.05 0.05 94 1014.9
20260502041017 48 0 0.0 0.0 0.00 0.05 0.05 94 1014.9
20260502040403 48 0 0.0 0.0 0.00 0.05 0.05 94 1014.9
20260502040003 48 0 0.0 0.0 0.00 0.05 0.05 94 1014.9
20260502035603 48 0 0.0 0.0 0.00 0.05 0.05 94 1014.9
20260502035203 48 0 0.0 0.0 0.00 0.05 0.05 94 1014.8
20260502034803 48 0 0.0 0.0 0.00 0.05 0.05 94 1014.9
20260502034403 48 0 0.0 0.0 0.00 0.05 0.05 94 1014.9
20260502034003 48 0 0.0 0.0 0.00 0.05 0.05 94 1014.9
20260502033603 48 0 0.0 0.0 0.00 0.05 0.05 94 1014.9
20260502033203 48 0 0.0 0.0 0.00 0.05 0.05 94 1014.8
20260502032803 48 0 0.0 0.0 0.00 0.05 0.05 94 1014.8
20260502032403 49 205 0.0 1.0 0.00 0.05 0.05 94 1014.9
20260502032003 49 205 0.0 2.0 0.00 0.05 0.05 94 1014.8
20260502031603 49 205 0.0 2.0 0.00 0.05 0.05 94 1014.8
20260502031203 49 205 0.0 1.0 0.00 0.05 0.05 94 1014.9
20260502030803 49 205 0.0 1.0 0.00 0.05 0.05 94 1015.0
20260502030403 49 205 0.0 1.0 0.00 0.05 0.05 93 1015.0
20260502030003 49 205 0.0 1.0 0.00 0.05 0.05 92 1015.0
20260502025603 50 205 0.0 1.0 0.00 0.05 0.05 92 1015.1
20260502025418 50 205 0.0 1.0 0.00 0.05 0.05 92 1015.1
20260502024803 50 0 0.0 0.0 0.00 0.05 0.05 92 1015.2
20260502024403 51 0 0.0 0.0 0.00 0.05 0.05 92 1015.2
20260502024003 51 0 0.0 0.0 0.00 0.05 0.05 92 1015.2
20260502023603 51 0 0.0 0.0 0.00 0.05 0.05 92 1015.3
20260502023203 51 0 0.0 0.0 0.00 0.05 0.05 92 1015.3
20260502022803 51 0 0.0 0.0 0.00 0.05 0.05 92 1015.3
20260502022403 52 0 0.0 0.0 0.00 0.05 0.05 92 1015.4
20260502022003 52 0 0.0 0.0 0.00 0.05 0.05 92 1015.4
20260502021818 52 0 0.0 0.0 0.00 0.05 0.05 92 1015.4
20260502021203 52 0 0.0 0.0 0.00 0.05 0.05 92 1015.4
20260502021017 52 0 0.0 0.0 0.00 0.05 0.05 92 1015.4
20260502020403 52 0 0.0 0.0 0.00 0.05 0.05 92 1015.4
20260502020003 52 0 0.0 0.0 0.00 0.05 0.05 92 1015.5
20260502015818 52 0 0.0 0.0 0.00 0.05 0.05 92 1015.5
20260502015418 52 0 0.0 0.0 0.00 0.05 0.05 92 1015.5
20260502014803 53 0 0.0 0.0 0.00 0.05 0.05 92 1015.5
20260502014403 53 0 0.0 0.0 0.00 0.05 0.05 92 1015.5
20260502014217 53 0 0.0 0.0 0.00 0.05 0.05 92 1015.6
20260502013603 53 0 0.0 0.0 0.00 0.05 0.05 92 1015.6
20260502013418 53 0 0.0 0.0 0.00 0.05 0.05 92 1015.5
20260502013018 53 0 0.0 0.0 0.00 0.05 0.05 92 1015.6
20260502012617 53 0 0.0 0.0 0.00 0.05 0.05 92 1015.7
20260502012217 53 0 0.0 0.0 0.00 0.05 0.05 91 1015.8
20260502011817 53 0 0.0 0.0 0.00 0.05 0.05 91 1015.8
20260502011418 53 0 0.0 0.0 0.00 0.05 0.05 91 1015.8
20260502010803 53 0 0.0 0.0 0.00 0.05 0.05 91 1015.9
20260502010403 53 0 0.0 0.0 0.00 0.05 0.05 91 1016.0
20260502010003 53 0 0.0 0.0 0.00 0.05 0.05 91 1016.0
20260502005603 53 0 0.0 0.0 0.00 0.05 0.05 90 1016.1
20260502005203 53 0 0.0 0.0 0.00 0.05 0.05 90 1016.1
20260502004803 53 205 0.0 1.0 0.00 0.05 0.05 90 1016.1
20260502004403 54 205 0.0 1.0 0.00 0.05 0.05 88 1016.1
20260502004004 54 205 0.0 1.0 0.00 0.05 0.05 88 1016.0
20260502003603 54 205 0.0 2.0 0.00 0.05 0.05 88 1016.0
20260502003417 54 205 0.0 2.0 0.00 0.05 0.05 88 1016.1
20260502002803 54 205 0.0 1.0 0.00 0.05 0.05 89 1016.1
20260502002403 54 205 0.0 1.0 0.01 0.05 0.05 89 1016.1
20260502002003 55 205 0.0 1.0 0.02 0.05 0.05 89 1016.2
20260502001603 55 0 0.0 0.0 0.05 0.05 0.05 90 1016.2
20260502001203 55 0 0.0 0.0 0.05 0.05 0.05 89 1016.2
20260502000803 55 205 0.0 1.0 0.05 0.05 0.05 89 1016.2
20260502000403 55 205 0.0 1.0 0.05 0.05 0.05 89 1016.3
20260502000003 55 0 0.0 0.0 0.05 0.05 0.05 89 1016.4
20260501235817 55 0 0.0 0.0 0.05 0.05 0.05 89 1016.4
20260501235417 55 0 0.0 0.0 0.05 0.05 0.05 89 1016.3
20260501234803 55 0 0.0 0.0 0.05 0.05 0.05 89 1016.3
20260501234403 55 0 0.0 0.0 0.05 0.05 0.05 88 1016.4
20260501234218 55 0 0.0 0.0 0.05 0.05 0.05 88 1016.4
20260501233603 56 0 0.0 0.0 0.05 0.05 0.05 87 1016.4
20260501233203 56 0 0.0 0.0 0.05 0.05 0.05 87 1016.4
20260501232803 56 205 0.0 1.0 0.05 0.05 0.05 86 1016.5
20260501232403 56 205 0.0 1.0 0.04 0.04 0.04 85 1016.6
20260501232003 56 0 0.0 0.0 0.02 0.02 0.02 84 1016.4
20260501231603 56 205 0.0 1.0 0.00 0.00 0.00 83 1016.4
20260501231203 56 205 0.0 1.0 0.00 0.00 0.00 81 1016.4
20260501230803 56 0 0.0 0.0 0.00 0.00 0.00 80 1016.5
20260501230403 56 0 0.0 0.0 0.00 0.00 0.00 80 1016.5
20260501230003 57 205 0.0 1.0 0.00 0.00 0.00 80 1016.4
20260501225603 57 205 0.0 1.0 0.00 0.00 0.00 79 1016.4
20260501225417 57 205 0.0 1.0 0.00 0.00 0.00 79 1016.5
20260501224803 57 205 0.0 1.0 0.00 0.00 0.00 79 1016.5
20260501224403 57 205 0.0 1.0 0.00 0.00 0.00 78 1016.5
20260501224003 57 205 0.0 1.0 0.00 0.00 0.00 78 1016.5
20260501223603 57 205 0.0 2.0 0.00 0.00 0.00 78 1016.5
20260501223203 57 205 0.0 2.0 0.00 0.00 0.00 77 1016.5
20260501222803 57 205 0.0 1.0 0.00 0.00 0.00 77 1016.6
20260501222403 57 0 0.0 0.0 0.00 0.00 0.00 77 1016.5
20260501222003 57 205 0.0 2.0 0.00 0.00 0.00 77 1016.5
20260501221603 57 205 0.0 2.0 0.00 0.00 0.00 77 1016.5
20260501221417 58 205 0.0 2.0 0.00 0.00 0.00 77 1016.5
20260501221017 58 205 0.0 1.0 0.00 0.00 0.00 76 1016.4
20260501220403 58 205 0.0 3.0 0.00 0.00 0.00 76 1016.5
20260501220218 58 205 0.0 3.0 0.00 0.00 0.00 76 1016.4
20260501215603 58 205 0.0 3.0 0.00 0.00 0.00 75 1016.5
20260501215203 58 205 0.0 3.0 0.00 0.00 0.00 75 1016.6
20260501215017 58 205 0.0 3.0 0.00 0.00 0.00 75 1016.5
20260501214403 58 205 0.0 3.0 0.00 0.00 0.00 74 1016.5
20260501214003 58 205 0.0 1.0 0.00 0.00 0.00 74 1016.5
20260501213603 58 205 0.0 1.0 0.00 0.00 0.00 74 1016.5
20260501213418 58 205 0.0 1.0 0.00 0.00 0.00 74 1016.4
20260501212803 58 205 0.0 1.0 0.00 0.00 0.00 73 1016.5
20260501212403 58 205 0.0 1.0 0.00 0.00 0.00 72 1016.5
20260501212003 58 0 0.0 0.0 0.00 0.00 0.00 72 1016.5
20260501211818 58 0 0.0 0.0 0.00 0.00 0.00 71 1016.5
20260501211418 59 0 0.0 0.0 0.00 0.00 0.00 71 1016.5
20260501211017 59 205 0.0 1.0 0.00 0.00 0.00 71 1016.5
20260501210403 60 205 0.0 2.0 0.00 0.00 0.00 71 1016.6
20260501210217 60 205 0.0 2.0 0.00 0.00 0.00 72 1016.6
20260501205603 60 205 0.0 3.0 0.00 0.00 0.00 71 1016.6
20260501205418 60 205 0.0 3.0 0.00 0.00 0.00 71 1016.6
20260501204803 60 205 0.0 3.0 0.00 0.00 0.00 71 1016.6
20260501204403 60 205 0.0 1.0 0.00 0.00 0.00 71 1016.7
20260501204003 60 205 0.0 1.0 0.00 0.00 0.00 70 1016.7
20260501203603 60 205 0.0 1.0 0.00 0.00 0.00 70 1016.8
20260501203203 60 205 0.0 1.0 0.00 0.00 0.00 70 1016.7
20260501202803 60 205 0.0 1.0 0.00 0.00 0.00 70 1016.7
20260501202403 60 205 0.0 1.0 0.00 0.00 0.00 70 1016.7
20260501202003 60 205 0.0 2.0 0.00 0.00 0.00 70 1016.7
20260501201603 60 205 0.0 3.0 0.00 0.00 0.00 69 1016.7
20260501201418 60 205 0.0 3.0 0.00 0.00 0.00 69 1016.6
20260501200803 60 205 0.0 3.0 0.00 0.00 0.00 69 1016.6
20260501200403 61 205 1.0 4.0 0.00 0.00 0.00 68 1016.7
20260501200217 61 205 1.0 4.0 0.00 0.00 0.00 68 1016.5
20260501195603 61 205 2.0 4.0 0.00 0.00 0.00 67 1016.6
20260501195203 61 205 1.0 4.0 0.00 0.00 0.00 67 1016.6
20260501194803 61 205 1.0 5.0 0.00 0.00 0.00 66 1016.6
20260501194403 62 205 1.0 5.0 0.00 0.00 0.00 65 1016.6
20260501194217 62 205 0.0 5.0 0.00 0.00 0.00 66 1016.6
20260501193603 62 205 0.0 2.0 0.00 0.00 0.00 66 1016.4
20260501193203 62 205 0.0 6.0 0.00 0.00 0.00 65 1016.4
20260501192803 62 205 0.0 6.0 0.00 0.00 0.00 65 1016.4
20260501192403 62 205 0.0 6.0 0.00 0.00 0.00 64 1016.4
20260501192217 63 205 0.0 5.0 0.00 0.00 0.00 64 1016.4
20260501191603 63 205 1.0 5.0 0.00 0.00 0.00 64 1016.4
20260501191203 63 205 1.0 4.0 0.00 0.00 0.00 63 1016.3
20260501190803 64 205 1.0 4.0 0.00 0.00 0.00 63 1016.2
20260501190403 64 205 1.0 4.0 0.00 0.00 0.00 62 1016.3
20260501190003 64 205 1.0 5.0 0.00 0.00 0.00 61 1016.4
20260501185603 64 205 2.0 5.0 0.00 0.00 0.00 60 1016.4
20260501185203 65 205 2.0 7.0 0.00 0.00 0.00 59 1016.3
20260501184803 65 205 1.0 7.0 0.00 0.00 0.00 59 1016.3
20260501184403 65 204 1.0 7.0 0.00 0.00 0.00 59 1016.3
20260501184003 65 204 2.0 7.0 0.00 0.00 0.00 59 1016.3
20260501183603 66 204 2.0 7.0 0.00 0.00 0.00 59 1016.3
20260501183203 66 203 2.0 7.0 0.00 0.00 0.00 58 1016.3
20260501182803 66 203 2.0 6.0 0.00 0.00 0.00 58 1016.3
20260501182618 66 203 1.0 6.0 0.00 0.00 0.00 57 1016.3
20260501182003 67 203 2.0 5.0 0.00 0.00 0.00 57 1016.2
20260501181603 67 203 2.0 7.0 0.00 0.00 0.00 57 1016.2
20260501181203 67 203 3.0 7.0 0.00 0.00 0.00 55 1016.1
20260501180803 67 203 3.0 7.0 0.00 0.00 0.00 54 1016.1
20260501180403 68 203 3.0 7.0 0.00 0.00 0.00 54 1016.1
20260501180003 68 203 2.0 7.0 0.00 0.00 0.00 54 1016.1
20260501175603 68 202 2.0 7.0 0.00 0.00 0.00 54 1016.1
20260501175203 69 202 1.0 6.0 0.00 0.00 0.00 55 1016.1
20260501174803 69 202 1.0 7.0 0.00 0.00 0.00 54 1016.0
20260501174403 69 202 2.0 7.0 0.00 0.00 0.00 53 1016.0
20260501174003 70 201 1.0 7.0 0.00 0.00 0.00 53 1016.0
20260501173603 70 201 1.0 6.0 0.00 0.00 0.00 54 1016.0
20260501173203 70 201 2.0 6.0 0.00 0.00 0.00 55 1015.9
20260501172803 70 201 3.0 7.0 0.00 0.00 0.00 54 1015.9
20260501172618 70 201 3.0 7.0 0.00 0.00 0.00 53 1016.0